Location: Unspecified
(0.0000°N, 0.0000°E)
Time: 04:55:22
(UTC+00:00)

A-11 Canister half - Pass Details

Date: 22 April 2026
Orbit: 1523 x 1685 km, 47.3° (Epoch: 13 May)

Event Time Altitude Azimuth Distance (km) Brightness Sun altitude
Rises 21:42:28 0° 250° (WSW) 4,758 12.0 -54.1°
Reaches altitude 10° 21:46:19 10° 263° (W) 3,798 11.4 -55.0°
Enters shadow 21:52:26 24° 302° (WNW) 2,904 10.6 -56.4°
Maximum altitude 21:53:38 24° 313° (NW) 2,881 - -56.6°
Drops below altitude 10° 22:01:10 10° 3° (N) 3,887 - -58.4°
Sets 22:05:14 0° 16° (NNE) 4,893 - -59.3°
